Flag for Germany Weather past 2 weeks in Mainz, Rhineland-Palatinate, Germany

Now
63 °F

Overcast.


Feels Like: 63 °F
Forecast: 51 / 65 °F
Wind: 14 mph from West

Location: Wiesbaden Airport

Current Time: Sep 4, 2015 at 12:45:30 PM

Latest Report: Sep 4, 2015 at 11:58 AM


Visibility: N/A

Pressure: 30.01 "Hg

Humidity: 46%

Dew point: 42 °F

Location of MainzLocation

Historic Weather in Mainz — Graph

°F

Mainz temperature yesterday

Maximum temperature yesterday: 70 °F (at 3:58 PM)
Minimum temperature yesterday: 52 °F (at 6:58 AM)
Average temperature yesterday: 61 °F

Past Weeks' High & Low Weather Summary

 TemperatureHumidityPressure
High93 °F (Aug 31, 3:58 PM)100% (Aug 23, 8:58 PM)30.29 "Hg (Aug 23, 8:58 PM)
Low51 °F (Sep 4, 6:58 AM)24% (Aug 22, 4:58 PM)29.66 "Hg (Aug 23, 6:58 PM)
Average68 °F69%29.99 "Hg
* Reported Aug 20 10:58 AM — Sep 4 10:58 AM, Mainz, Weather by CustomWeather, © 2015

Note: Actual official high and low records may vary slightly from our data, if they occured in-between our weather recording intervals... More about our weather records

Advertising

Mainz weather history for previous 24 hours

 ConditionsComfort  
Time TempWeatherWind HumidityBarometerVisibility
10:58 AM
Fri, Sep 4
61 °FPartly sunny.10 mph60%30.01 "HgN/A
9:58 AM57 °FScattered clouds.3 mph73%30.01 "HgN/A
8:58 AM54 °FOvercast.2 mph80%30.00 "HgN/A
7:58 AM52 °FPartly sunny.2 mph90%30.00 "HgN/A
6:58 AM51 °FPassing clouds.2 mph91%29.99 "HgN/A
5:58 AM52 °FPassing clouds.2 mph89%29.98 "HgN/A
4:58 AM54 °FPassing clouds.5 mph82%29.98 "HgN/A
3:58 AM54 °FMostly cloudy.No wind83%29.99 "HgN/A
2:58 AM55 °FOvercast.2 mph77%29.99 "HgN/A
1:58 AM54 °FPassing clouds.No wind82%29.99 "HgN/A
12:58 AM54 °FPassing clouds.6 mph77%29.99 "HgN/A
11:58 PM
Thu, Sep 3
55 °FClear.5 mph72%29.98 "HgN/A
10:58 PM56 °FClear.6 mph68%29.97 "HgN/A
9:58 PM57 °FClear.5 mph63%29.97 "HgN/A
8:58 PM61 °FSunny.7 mph55%29.95 "HgN/A
7:58 PM65 °FSunny.8 mph46%29.93 "HgN/A
6:58 PM68 °FSunny.9 mph43%29.93 "HgN/A
5:58 PM70 °FPassing clouds.12 mph38%29.92 "HgN/A
4:58 PM70 °FScattered clouds.7 mph43%29.92 "HgN/A
3:58 PM70 °FPassing clouds.8 mph42%29.93 "HgN/A
2:58 PM68 °FScattered clouds.7 mph48%29.94 "HgN/A
1:58 PM68 °FBroken clouds.9 mph49%29.94 "HgN/A
12:58 PM68 °FBroken clouds.8 mph53%29.95 "HgN/A
Weather by CustomWeather, © 2015

See weather overviewHow to use our weather pages